CW2074 Weather Reports


Display with metric or nautical units.
time (UTC)temp
F
wind
direction
speed
MPH
gust
MPH
rain 1hr
in
rain 24hr
in
rain mn
in
humidity
%
barometer
mb
20170430103632 66 166 0.0 2.0 0.00 0.00 0.00 91 1017.7
20170430102020 66 184 0.0 2.0 0.00 0.00 0.00 91 1017.5
20170430100419 66 132 0.0 4.0 0.00 0.00 0.00 91 1017.6
20170430094710 66 246 0.0 3.0 0.00 0.00 0.00 91 1017.6
20170430093122 67 233 0.0 4.0 0.00 0.00 0.00 91 1017.5
20170430091502 67 140 0.0 2.0 0.00 0.00 0.00 91 1017.7
20170430085826 67 270 0.0 3.0 0.00 0.00 0.00 91 1017.4
20170430084105 67 234 0.0 2.0 0.00 0.00 0.00 91 1017.2
20170430082509 67 289 0.0 2.0 0.00 0.00 0.00 91 1017.1
20170430080906 67 219 0.0 4.0 0.00 0.00 0.00 91 1017.4
20170430075143 67 213 0.0 3.0 0.00 0.00 0.00 91 1017.4
20170430073552 67 186 0.0 3.0 0.00 0.00 0.00 91 1017.5
20170430071944 67 235 0.0 2.0 0.00 0.00 0.00 91 1017.5
20170430070321 68 194 0.0 2.0 0.00 0.00 0.00 91 1017.4
20170430064558 68 198 0.0 1.0 0.00 0.00 0.00 91 1017.5
20170430062947 68 175 0.0 2.0 0.00 0.00 0.00 90 1017.5
20170430061318 69 64 0.0 1.0 0.00 0.00 0.00 90 1017.6
20170430055641 69 136 0.0 3.0 0.00 0.00 0.00 90 1017.8
20170430054049 69 165 0.0 3.0 0.00 0.00 0.00 90 1017.9
20170430052334 69 221 0.0 3.0 0.00 0.00 0.00 90 1018.1
20170430050732 69 211 0.0 3.0 0.00 0.00 0.00 90 1018.1
20170430045123 70 218 0.0 2.0 0.00 0.00 0.00 90 1018.2
20170430043430 70 120 0.0 2.0 0.00 0.00 0.00 89 1018.2
20170430041742 70 121 0.0 3.0 0.00 0.00 0.00 89 1018.2
20170430040124 70 215 0.0 1.0 0.00 0.00 0.00 89 1018.3
20170430034511 71 148 0.0 1.0 0.00 0.00 0.00 90 1018.4
20170430032844 71 147 0.0 2.0 0.00 0.00 0.00 90 1018.3
20170430031233 71 129 0.0 3.0 0.00 0.00 0.00 90 1018.2
20170430025531 71 118 0.0 4.0 0.00 0.00 0.00 90 1018.3
20170430023940 71 132 0.0 3.0 0.00 0.00 0.00 90 1018.1
20170430022240 72 152 0.0 1.0 0.00 0.00 0.00 90 1018.0
20170430020656 72 152 0.0 0.0 0.00 0.00 0.00 90 1017.9
20170430014947 73 152 0.0 0.0 0.00 0.00 0.00 90 1017.7
20170430013328 73 152 0.0 0.0 0.00 0.00 0.00 89 1017.4
20170430011720 74 152 0.0 0.0 0.00 0.00 0.00 89 1017.3
20170430010114 74 152 0.0 0.0 0.00 0.00 0.00 89 1017.2
20170430004404 75 152 0.0 0.0 0.00 0.00 0.00 88 1017.1
20170430002821 75 152 0.0 0.0 0.00 0.00 0.00 87 1017.0
20170430001116 76 152 0.0 0.0 0.00 0.00 0.00 87 1017.0
20170429235454 77 152 0.0 0.0 0.00 0.00 0.00 86 1016.9
20170429233856 78 152 0.0 2.0 0.00 0.00 0.00 84 1016.7
20170429232231 78 161 0.0 2.0 0.00 0.00 0.00 82 1016.6
20170429230526 79 207 0.0 3.0 0.00 0.00 0.00 82 1016.5
20170429224906 79 70 0.0 2.0 0.00 0.00 0.00 80 1016.5
20170429223306 80 161 0.0 5.0 0.00 0.00 0.00 78 1016.6
20170429221604 80 119 0.0 3.0 0.00 0.00 0.00 79 1016.8
20170429215942 81 109 1.0 3.0 0.00 0.00 0.00 77 1016.8
20170429214332 82 185 0.0 3.0 0.00 0.00 0.00 77 1016.9
20170429212729 82 113 0.0 5.0 0.00 0.00 0.00 74 1017.0
20170429211022 82 235 1.0 6.0 0.00 0.00 0.00 74 1016.9
20170429205424 82 159 1.0 3.0 0.00 0.00 0.00 76 1016.9
20170429203745 82 180 0.0 3.0 0.00 0.00 0.00 77 1017.1
20170429202136 81 135 0.0 4.0 0.00 0.00 0.00 79 1017.6
20170429200528 82 277 2.0 8.0 0.00 0.00 0.00 74 1017.9
20170429194808 84 101 1.0 7.0 0.00 0.00 0.00 74 1017.9
20170429193254 83 256 1.0 4.0 0.00 0.00 0.00 73 1018.1
20170429191545 82 199 0.0 3.0 0.00 0.00 0.00 75 1018.5
20170429185855 83 276 1.0 4.0 0.00 0.00 0.00 73 1018.5
20170429184241 84 257 1.0 3.0 0.00 0.00 0.00 72 1018.5
20170429182647 82 122 0.0 5.0 0.00 0.00 0.00 75 1018.9
20170429180933 82 127 1.0 4.0 0.00 0.00 0.00 75 1019.0
20170429175330 83 131 1.0 8.0 0.00 0.00 0.00 73 1018.9
20170429173735 83 216 1.0 4.0 0.00 0.00 0.00 75 1019.0
20170429172109 83 250 1.0 5.0 0.00 0.00 0.00 70 1019.2
20170429170525 83 208 1.0 4.0 0.00 0.00 0.00 69 1019.2
20170429165025 83 127 1.0 3.0 0.00 0.00 0.00 73 1019.3
20170429163522 82 136 2.0 5.0 0.00 0.00 0.00 72 1019.5
20170429162020 81 81 1.0 4.0 0.00 0.00 0.00 74 1019.6
20170429160517 81 269 1.0 4.0 0.00 0.00 0.00 74 1019.8
20170429155015 81 265 2.0 6.0 0.00 0.00 0.00 74 1019.7
20170429153512 80 234 0.0 3.0 0.00 0.00 0.00 77 1019.8
20170429152013 80 204 1.0 4.0 0.00 0.00 0.00 77 1019.7
20170429150513 79 259 1.0 3.0 0.00 0.00 0.00 79 1019.7
20170429145003 78 196 1.0 3.0 0.00 0.00 0.00 79 1019.8
20170429143457 77 125 0.0 3.0 0.00 0.00 0.00 82 1019.8
20170429142002 76 98 1.0 3.0 0.00 0.00 0.00 84 1019.9
20170429140333 74 248 1.0 4.0 0.00 0.00 0.00 88 1019.8
20170429134654 73 281 0.0 3.0 0.00 0.00 0.00 89 1019.9
20170429133011 71 240 1.0 4.0 0.00 0.00 0.00 90 1019.9
20170429131401 70 219 1.0 3.0 0.00 0.00 0.00 91 1020.1
20170429125725 69 109 0.0 3.0 0.00 0.00 0.00 89 1020.2
20170429124130 68 176 0.0 3.0 0.00 0.00 0.00 89 1020.1
20170429122504 67 127 0.0 2.0 0.00 0.00 0.00 89 1020.1
20170429120828 65 256 0.0 0.0 0.00 0.00 0.00 89 1020.0
20170429115118 64 256 0.0 0.0 0.00 0.00 0.00 89 1020.0
20170429113507 64 256 0.0 0.0 0.00 0.00 0.00 89 1019.8
20170429111844 64 256 0.0 0.0 0.00 0.00 0.00 89 1019.5
20170429110223 63 256 0.0 0.0 0.00 0.00 0.00 89 1019.1